Location: Gollag?dem
(16.8053°N, 80.8024°E)
Time: 17:07:23
(UTC+00:00)

Cosmos 1782 - Pass Details

Date: 13 August 2020
Orbit: 539 x 550 km, 82.5° (Epoch: 17 September)

Event Time Altitude Azimuth Distance (km) Brightness Sun altitude
Rises 13:41:44 0° 7° (N) 2,712 6.5 -9.7°
Reaches altitude 10° 13:44:01 10° 16° (NNE) 1,819 5.5 -10.2°
Maximum altitude 13:47:44 37° 84° (E) 865 3.4 -11.1°
Drops below altitude 10° 13:51:27 10° 152° (SSE) 1,816 5.0 -11.9°
Enters shadow 13:51:43 - 154° (SSE) 1,917 5.2 -12.0°
